CW5619 Weather Reports


Display with metric or nautical units.
time (UTC)temp
F
wind
direction
speed
MPH
gust
MPH
rain 1hr
in
rain 24hr
in
rain mn
in
humidity
%
barometer
mb
20260901231403 95 235 1.0 6.0 0.00 0.89 0.00 36 1013.8
20260901230903 95 20 2.0 7.0 0.00 0.89 0.00 37 1013.8
20260901230403 95 225 3.0 7.0 0.00 0.89 0.00 35 1013.9
20260901225903 96 41 2.0 5.0 0.00 0.89 0.00 37 1013.9
20260901225403 95 19 2.0 5.0 0.00 0.89 0.00 36 1013.9
20260901224903 95 239 3.0 5.0 0.00 0.89 0.00 35 1013.9
20260901224403 96 278 2.0 5.0 0.00 0.89 0.00 35 1013.9
20260901223903 96 290 1.0 9.0 0.00 0.89 0.00 36 1014.2
20260901223403 96 254 2.0 9.0 0.00 0.89 0.00 35 1014.0
20260901222403 96 252 1.0 6.0 0.00 0.89 0.00 36 1014.2
20260901221903 96 284 2.0 6.0 0.00 0.89 0.00 36 1014.3
20260901220903 96 199 1.0 7.0 0.00 0.89 0.00 36 1014.3
20260901220403 95 209 2.0 7.0 0.00 0.89 0.00 37 1014.3
20260901215903 95 131 1.0 3.0 0.00 0.89 0.00 36 1014.4
20260901214903 96 42 1.0 5.0 0.00 0.89 0.00 36 1014.5
20260901214403 96 277 1.0 6.0 0.00 0.89 0.00 36 1014.6
20260901213403 95 257 1.0 7.0 0.00 0.89 0.00 37 1014.8
20260901212903 95 227 2.0 7.0 0.00 0.89 0.00 36 1014.9
20260901212403 95 248 3.0 7.0 0.00 0.89 0.00 37 1015.0
20260901211903 95 228 2.0 6.0 0.00 0.89 0.00 36 1015.0
20260901211403 96 226 3.0 7.0 0.00 0.89 0.00 36 1015.2
20260901210903 96 238 3.0 7.0 0.00 0.89 0.00 36 1015.2
20260901210403 95 327 1.0 3.0 0.00 0.89 0.00 37 1015.4
20260901205903 95 309 1.0 6.0 0.00 0.89 0.00 38 1015.3
20260901205403 95 197 1.0 7.0 0.00 0.89 0.00 37 1015.4
20260901204903 95 264 2.0 9.0 0.00 0.89 0.00 39 1015.5
20260901204403 95 201 4.0 9.0 0.00 0.89 0.00 38 1015.5
20260901203903 95 8 1.0 7.0 0.00 0.89 0.00 39 1015.5
20260901202903 94 229 3.0 8.0 0.00 0.89 0.00 39 1015.8
20260901201903 94 247 2.0 8.0 0.00 0.89 0.00 39 1016.0
20260901200403 95 335 2.0 5.0 0.00 0.89 0.00 37 1016.0
20260901195903 94 235 1.0 3.0 0.00 0.89 0.00 38 1016.1
20260901194404 94 134 1.0 3.0 0.00 0.89 0.00 38 1016.1
20260901193902 93 58 2.0 5.0 0.00 0.89 0.00 38 1016.2
20260901193403 93 81 2.0 7.0 0.00 0.89 0.00 38 1016.3
20260901192903 93 40 3.0 7.0 0.00 0.89 0.00 37 1016.3
20260901192402 92 74 2.0 6.0 0.00 0.89 0.00 38 1016.4
20260901191904 93 27 2.0 6.0 0.00 0.89 0.00 39 1016.6
20260901191403 92 90 2.0 6.0 0.00 0.89 0.00 40 1016.7
20260901190903 92 48 2.0 6.0 0.00 0.89 0.00 39 1016.6
20260901190403 91 52 1.0 3.0 0.00 0.89 0.00 42 1016.8
20260901185903 91 147 1.0 3.0 0.00 0.89 0.00 40 1016.7
20260901185403 91 134 0.0 3.0 0.00 0.89 0.00 40 1016.8
20260901184902 90 197 1.0 3.0 0.00 0.89 0.00 40 1016.6
20260901183902 90 208 1.0 3.0 0.00 0.89 0.00 42 1016.8
20260901183404 89 154 1.0 3.0 0.00 0.89 0.00 44 1016.9
20260901182903 89 78 1.0 3.0 0.00 0.89 0.00 44 1016.9
20260901182404 88 212 2.0 3.0 0.00 0.89 0.00 43 1016.9
20260901181904 88 147 2.0 5.0 0.00 0.89 0.00 44 1017.0
20260901181402 89 195 1.0 6.0 0.00 0.89 0.00 44 1017.0
20260901180902 89 231 1.0 6.0 0.00 0.89 0.00 44 1017.1
20260901180402 89 237 3.0 6.0 0.00 0.89 0.00 44 1017.0
20260901175903 89 218 1.0 3.0 0.00 0.89 0.00 44 1017.1
20260901175403 89 61 0.0 3.0 0.00 0.89 0.00 45 1017.1
20260901174903 88 115 1.0 3.0 0.00 0.89 0.00 46 1017.2
20260901174403 87 189 0.0 3.0 0.00 0.89 0.00 45 1017.1
20260901173903 87 248 1.0 3.0 0.00 0.89 0.00 46 1017.1
20260901173402 86 208 2.0 3.0 0.00 0.89 0.00 48 1017.2
20260901172903 86 198 1.0 5.0 0.00 0.89 0.00 48 1017.2
20260901172403 86 226 2.0 5.0 0.00 0.89 0.00 49 1017.2
20260901171903 87 209 1.0 5.0 0.00 0.89 0.00 48 1017.2
20260901171402 86 98 1.0 3.0 0.00 0.89 0.00 50 1017.2
20260901170903 86 82 1.0 3.0 0.00 0.89 0.00 51 1017.3
20260901170403 85 225 2.0 3.0 0.00 0.89 0.00 49 1017.2
20260901165903 86 186 1.0 3.0 0.00 0.89 0.00 51 1017.3
20260901164903 85 195 2.0 3.0 0.00 0.89 0.00 53 1017.4
20260901164403 84 111 1.0 3.0 0.00 0.89 0.00 54 1017.3
20260901163903 84 113 1.0 3.0 0.00 0.89 0.00 54 1017.3
20260901163403 84 89 2.0 3.0 0.00 0.89 0.00 54 1017.3
20260901162903 83 156 1.0 5.0 0.00 0.89 0.00 55 1017.2
20260901162403 83 200 1.0 5.0 0.00 0.89 0.00 58 1017.1
20260901161903 83 99 1.0 5.0 0.00 0.89 0.00 58 1017.2
20260901161403 82 88 1.0 3.0 0.00 0.89 0.00 60 1017.2
20260901160904 81 146 2.0 3.0 0.00 0.89 0.00 61 1017.2
20260901155903 81 116 1.0 3.0 0.00 0.89 0.00 61 1017.2
20260901155404 81 97 1.0 6.0 0.00 0.89 0.00 61 1017.2
20260901154903 81 102 2.0 6.0 0.00 0.89 0.00 61 1017.2
20260901153903 80 116 1.0 3.0 0.00 0.89 0.00 63 1017.2
20260901153403 80 97 1.0 3.0 0.00 0.89 0.00 65 1017.2
20260901152902 79 123 1.0 6.0 0.00 0.89 0.00 65 1017.2
20260901152403 79 126 1.0 6.0 0.00 0.89 0.00 66 1017.2
20260901151903 79 161 1.0 3.0 0.00 0.89 0.00 66 1017.2
20260901151403 78 106 1.0 6.0 0.00 0.89 0.00 66 1017.2
20260901150903 78 104 3.0 6.0 0.00 0.89 0.00 67 1017.3
20260901150403 78 109 1.0 6.0 0.00 0.89 0.00 68 1017.3
20260901145902 77 115 1.0 3.0 0.00 0.89 0.00 69 1017.3
20260901145403 77 127 1.0 3.0 0.00 0.89 0.00 70 1017.2
20260901144903 76 115 1.0 5.0 0.00 0.89 0.00 71 1017.2
20260901143403 75 108 1.0 6.0 0.00 0.89 0.00 73 1017.1
20260901142902 75 85 2.0 6.0 0.00 0.89 0.00 73 1017.2
20260901142403 74 66 1.0 5.0 0.00 0.89 0.00 74 1017.2
20260901141903 74 114 1.0 5.0 0.00 0.89 0.00 75 1017.1
20260901140902 73 108 2.0 6.0 0.00 0.89 0.00 77 1017.0
20260901140403 72 102 1.0 3.0 0.00 0.89 0.00 78 1016.9
20260901135903 72 120 1.0 3.0 0.00 0.89 0.00 80 1016.8
20260901135403 71 123 1.0 3.0 0.00 0.89 0.00 81 1016.7
20260901134903 71 115 1.0 3.0 0.00 0.89 0.00 81 1016.8
20260901134402 70 94 1.0 6.0 0.00 0.89 0.00 82 1016.8
20260901133903 70 99 1.0 6.0 0.00 0.89 0.00 83 1016.7
20260901133403 70 87 1.0 3.0 0.00 0.89 0.00 83 1016.7
20260901132903 70 99 1.0 3.0 0.00 0.89 0.00 84 1016.7
20260901131903 70 91 0.0 2.0 0.00 0.89 0.00 84 1016.6
20260901131403 70 85 0.0 1.0 0.00 0.89 0.00 83 1016.4
20260901130903 70 96 0.0 2.0 0.00 0.89 0.00 83 1016.4
20260901130403 70 86 0.0 2.0 0.00 0.89 0.00 83 1016.3
20260901125403 70 109 0.0 2.0 0.00 0.89 0.00 83 1016.2
20260901124903 70 87 0.0 2.0 0.00 0.89 0.00 83 1016.1
20260901124403 70 63 0.0 1.0 0.00 0.89 0.00 83 1016.0
20260901123403 70 113 0.0 0.0 0.00 0.89 0.00 83 1015.9
20260901122903 70 113 0.0 0.0 0.00 0.89 0.00 83 1016.0
20260901122403 70 113 0.0 1.0 0.00 0.89 0.00 82 1015.9
20260901121903 70 113 0.0 1.0 0.00 0.89 0.00 82 1015.8
20260901121404 70 113 0.0 2.0 0.00 0.89 0.00 82 1015.8
20260901120903 71 109 0.0 3.0 0.00 0.89 0.00 82 1015.8
20260901120403 71 93 1.0 3.0 0.00 0.89 0.00 81 1015.7
20260901115903 71 103 1.0 3.0 0.00 0.89 0.00 81 1015.6
20260901115403 71 89 0.0 2.0 0.00 0.89 0.00 81 1015.5
20260901114902 71 76 0.0 2.0 0.00 0.89 0.00 82 1015.6
20260901114402 71 99 0.0 2.0 0.00 0.89 0.00 82 1015.6
20260901113903 71 98 1.0 2.0 0.00 0.89 0.00 82 1015.6
20260901113402 71 51 0.0 3.0 0.00 0.89 0.00 82 1015.6
20260901112902 71 68 0.0 3.0 0.00 0.89 0.00 82 1015.7
20260901112403 71 81 1.0 3.0 0.00 0.89 0.00 82 1015.7
20260901111903 71 85 1.0 3.0 0.00 0.89 0.00 82 1015.7
20260901110903 71 69 0.0 3.0 0.00 0.89 0.00 82 1015.6
20260901110404 71 97 1.0 3.0 0.00 0.89 0.00 82 1015.4
20260901105903 71 106 1.0 3.0 0.00 0.89 0.00 82 1015.6
20260901105402 71 92 1.0 3.0 0.00 0.89 0.00 82 1015.6
20260901104903 71 88 1.0 3.0 0.00 0.89 0.00 82 1015.6
20260901104403 71 81 1.0 3.0 0.00 0.89 0.00 82 1015.5
20260901103403 71 126 1.0 3.0 0.00 0.89 0.00 82 1015.5
20260901102903 71 98 1.0 3.0 0.00 0.89 0.00 82 1015.6
20260901101903 71 100 1.0 3.0 0.00 0.89 0.00 81 1015.5
20260901101403 71 78 0.0 2.0 0.00 0.89 0.00 81 1015.4
20260901100903 72 78 0.0 0.0 0.00 0.89 0.00 80 1015.4
20260901100403 72 78 0.0 2.0 0.00 0.89 0.00 80 1015.4
20260901095903 72 78 0.0 2.0 0.00 0.89 0.00 80 1015.4
20260901094402 72 72 0.0 2.0 0.00 0.89 0.00 80 1015.4
20260901093403 72 76 0.0 3.0 0.00 0.89 0.00 80 1015.4
20260901092903 72 109 1.0 3.0 0.00 0.89 0.00 80 1015.3
20260901092403 72 103 0.0 3.0 0.00 0.89 0.00 80 1015.4
20260901091903 72 88 0.0 3.0 0.00 0.89 0.00 80 1015.3
20260901091403 72 98 1.0 3.0 0.00 0.89 0.00 79 1015.3
20260901090903 72 65 1.0 3.0 0.00 0.89 0.00 79 1015.4
20260901090403 73 67 0.0 3.0 0.00 0.89 0.00 79 1015.4
20260901085903 73 72 0.0 3.0 0.00 0.89 0.00 79 1015.6
20260901085403 73 86 2.0 3.0 0.00 0.89 0.00 79 1015.6
20260901084403 73 95 1.0 3.0 0.00 0.89 0.00 80 1015.6
20260901083903 73 88 1.0 2.0 0.00 0.89 0.00 80 1015.5
20260901083403 73 88 1.0 3.0 0.00 0.89 0.00 80 1015.5
20260901082903 73 112 1.0 3.0 0.00 0.89 0.00 80 1015.5
20260901082403 73 68 1.0 3.0 0.00 0.89 0.00 79 1015.5
20260901081902 73 90 1.0 3.0 0.00 0.89 0.00 79 1015.5
20260901081403 73 67 0.0 3.0 0.00 0.89 0.00 79 1015.5
20260901080903 73 100 1.0 3.0 0.00 0.89 0.00 78 1015.5
20260901080404 74 83 1.0 3.0 0.00 0.89 0.00 77 1015.5
20260901075903 74 89 2.0 3.0 0.00 0.89 0.00 77 1015.4
20260901075403 74 97 1.0 3.0 0.00 0.89 0.00 77 1015.4
20260901074403 74 87 0.0 3.0 0.00 0.89 0.00 74 1015.5
20260901073903 75 91 0.0 2.0 0.00 0.89 0.00 74 1015.6
20260901073403 75 90 0.0 3.0 0.00 0.89 0.00 73 1015.6
20260901072903 75 119 1.0 3.0 0.00 0.89 0.00 72 1015.6
20260901071903 76 91 1.0 6.0 0.00 0.89 0.00 70 1015.6
20260901071403 76 126 1.0 6.0 0.00 0.89 0.00 70 1015.6
20260901070903 76 116 1.0 3.0 0.00 0.89 0.00 70 1015.5
20260901070403 76 92 0.0 3.0 0.00 0.89 0.00 69 1015.6
20260901065903 76 85 1.0 3.0 0.00 0.89 0.89 69 1015.6
20260901065403 76 157 0.0 7.0 0.00 0.89 0.89 68 1015.6
20260901064903 76 116 1.0 7.0 0.00 0.89 0.89 68 1015.6
20260901064403 76 182 0.0 3.0 0.00 0.89 0.89 69 1015.6
20260901063903 76 123 2.0 6.0 0.00 0.89 0.89 69 1015.6
20260901062903 76 82 2.0 6.0 0.00 0.89 0.89 69 1015.6
20260901062403 76 109 1.0 5.0 0.00 0.89 0.89 71 1015.7
20260901061904 76 105 1.0 3.0 0.00 0.89 0.89 71 1015.8
20260901060402 76 103 1.0 3.0 0.00 0.89 0.89 72 1015.6
20260901055402 76 68 0.0 2.0 0.00 0.89 0.89 71 1015.8
20260901054903 76 150 0.0 2.0 0.00 0.89 0.89 70 1015.8
20260901053903 76 92 1.0 3.0 0.00 0.89 0.89 70 1015.7
20260901052403 77 130 1.0 3.0 0.00 0.89 0.89 69 1015.6
20260901051904 77 103 1.0 3.0 0.00 0.89 0.89 68 1015.6
20260901051403 77 140 1.0 6.0 0.00 0.89 0.89 68 1015.5
20260901050903 77 114 2.0 6.0 0.00 0.89 0.89 68 1015.6
20260901050403 77 110 2.0 6.0 0.00 0.89 0.89 68 1015.7
20260901045903 77 129 2.0 3.0 0.00 0.89 0.89 68 1015.7
20260901045403 77 140 1.0 3.0 0.00 0.89 0.89 68 1015.9
20260901044902 77 106 1.0 3.0 0.00 0.89 0.89 68 1015.9
20260901044403 76 135 1.0 3.0 0.00 0.89 0.89 68 1015.9
20260901043903 76 121 1.0 3.0 0.00 0.89 0.89 69 1015.8
20260901043403 76 121 1.0 3.0 0.00 0.89 0.89 70 1015.7
20260901042903 76 116 0.0 2.0 0.00 0.89 0.89 70 1015.7
20260901042403 76 112 0.0 2.0 0.00 0.89 0.89 71 1015.7
20260901041904 76 126 0.0 3.0 0.00 0.89 0.89 70 1015.6
20260901040903 76 111 0.0 3.0 0.00 0.89 0.89 70 1015.5
20260901040403 76 122 0.0 0.0 0.00 0.89 0.89 70 1015.4
20260901035904 76 117 0.0 0.0 0.00 0.89 0.89 70 1015.5
20260901035403 76 117 0.0 0.0 0.00 0.89 0.89 70 1015.6
20260901033904 76 105 0.0 0.0 0.00 0.89 0.89 72 1015.4
20260901033403 76 105 0.0 0.0 0.00 0.89 0.89 73 1015.3
20260901032903 76 105 0.0 0.0 0.00 0.89 0.89 72 1015.4
20260901031903 77 105 0.0 0.0 0.00 0.89 0.89 71 1015.3
20260901031403 77 105 0.0 0.0 0.00 0.89 0.89 70 1015.3
20260901030403 77 129 0.0 1.0 0.00 0.89 0.89 69 1015.2
20260901025903 77 135 0.0 1.0 0.00 0.89 0.89 69 1015.2
20260901024903 77 132 0.0 1.0 0.00 0.89 0.89 69 1015.0
20260901024403 78 104 0.0 1.0 0.00 0.89 0.89 69 1014.9
20260901023903 78 104 0.0 1.0 0.00 0.89 0.89 69 1014.8
20260901023403 78 104 0.0 1.0 0.00 0.89 0.89 69 1014.6
20260901022903 78 104 0.0 2.0 0.89 0.89 0.89 69 1014.4
20260901022403 78 104 0.0 2.0 0.89 0.89 0.89 68 1014.3
20260901021903 78 115 0.0 2.0 0.89 0.89 0.89 67 1014.3
20260901021403 78 106 0.0 1.0 0.89 0.89 0.89 68 1014.2
20260901020903 78 71 0.0 1.0 0.89 0.89 0.89 69 1014.1
20260901020403 79 71 0.0 1.0 0.89 0.89 0.89 68 1014.0
20260901015903 79 65 0.0 0.0 0.89 0.89 0.89 68 1014.0
20260901015403 80 65 0.0 0.0 0.89 0.89 0.89 67 1014.0
20260901014903 80 65 0.0 0.0 0.89 0.89 0.89 66 1014.1
20260901014404 80 65 0.0 0.0 0.89 0.89 0.89 66 1014.2
20260901013403 81 65 0.0 0.0 0.89 0.89 0.89 64 1013.8
20260901012403 81 53 0.0 3.0 0.00 0.00 0.00 64 1013.7
20260901011904 81 79 1.0 3.0 0.00 0.00 0.00 65 1013.7
20260901011404 81 57 0.0 2.0 0.00 0.00 0.00 64 1013.7
20260901010903 81 57 0.0 2.0 0.00 0.00 0.00 63 1013.5
20260901010404 81 88 0.0 2.0 0.00 0.00 0.00 61 1013.6
20260901005902 81 88 0.0 2.0 0.00 0.00 0.00 62 1013.7
20260901005404 81 74 0.0 2.0 0.00 0.00 0.00 61 1013.8
20260901004903 81 92 0.0 2.0 0.00 0.00 0.00 61 1013.8
20260901004404 81 106 0.0 2.0 0.00 0.00 0.00 60 1013.8
20260901003903 81 101 0.0 2.0 0.00 0.00 0.00 62 1013.8
20260901003403 81 110 0.0 2.0 0.00 0.00 0.00 60 1013.8
20260901002903 81 83 1.0 3.0 0.00 0.00 0.00 60 1013.8
20260901002403 81 138 0.0 3.0 0.00 0.00 0.00 60 1013.8
20260901001903 81 128 1.0 3.0 0.00 0.00 0.00 60 1013.9
20260901001403 81 121 1.0 3.0 0.00 0.00 0.00 59 1013.9
20260901000402 81 141 2.0 6.0 0.00 0.00 0.00 60 1013.9
20260831235903 81 121 3.0 6.0 0.00 0.00 0.00 59 1014.1
20260831235403 81 217 1.0 6.0 0.00 0.00 0.00 60 1013.9
20260831234903 81 111 1.0 8.0 0.00 0.00 0.00 60 1014.0
20260831234403 81 88 3.0 8.0 0.00 0.00 0.00 59 1014.1
20260831233903 81 138 3.0 7.0 0.00 0.00 0.00 60 1014.1
20260831232903 81 150 2.0 6.0 0.00 0.00 0.00 61 1014.0
20260831232403 81 119 2.0 8.0 0.00 0.00 0.00 62 1013.9
20260831231903 81 109 2.0 8.0 0.00 0.00 0.00 62 1014.0